[[{"header":{"parameterUnit":"m.s-1","parameterCategory":1,"la1":30.2991,"la2":30.254,"lo1":-89.0895,"lo2":-89.0444,"dy":0.0017,"dx":0.0017,"nx":28,"ny":28,"refTime":"2024-10-06T03:00:00:Z","depth":0,"parameterNumber":2,"parameterNumberName":"U-component_of_WINDS"},"data":[0,0,0,0,0,0,0,0,0,0,0,0,0,0,0,0,0,0,0,0,0,0,0,0,0,0,0,0,0,0,0,0,0,0,0,0,0,0,0,0,0,0,0,0,0,0,0,0,0,0,0,0,0,0,0,0,0,0,-3.1631,-3.1631,0,-3.1595,-3.1594,-3.1594,-3.1555,-3.1555,-3.1554,-3.1554,-3.1516,-3.1516,-3.1515,0,0,0,0,0,0,0,0,0,0,0,0,0,-3.1667,-3.1666,-3.1631,-3.1631,-3.163,-3.1595,-3.1594,-3.1594,-3.1555,-3.1555,-3.1554,-3.1553,-3.1516,-3.1516,-3.1515,0,0,0,0,0,0,0,0,0,0,0,0,0,-3.1643,-3.1666,-3.1631,-3.1607,-3.1604,-3.1595,-3.1594,-3.1594,-3.1556,-3.1555,-3.1554,-3.1553,-3.1517,-3.1516,-3.1515,-3.1527,0,0,-3.1513,-3.1513,0,0,0,0,0,0,0,0,-3.1645,-3.1642,-3.1611,-3.1608,-3.1605,-3.1579,-3.1593,-3.1571,-3.1556,-3.1574,-3.1554,-3.1553,-3.1538,-3.1535,-3.153,-3.1525,-3.1524,-3.1513,-3.1512,-3.1512,-3.1512,0,0,0,0,0,0,0,-3.1646,-3.1643,-3.1617,-3.161,-3.1607,-3.1598,-3.1593,-3.1589,-3.1561,-3.1572,-3.1569,-3.1566,-3.1536,-3.1531,-3.1529,-3.1523,-3.1513,-3.1512,-3.1512,-3.1512,-3.1528,-3.1528,0,0,0,0,0,0,-3.1652,-3.1645,-3.1618,-3.1616,-3.1623,-3.1598,-3.1593,-3.1588,-3.1561,-3.1556,-3.1566,-3.1564,-3.1533,-3.153,-3.1528,-3.154,-3.1512,-3.1511,-3.1511,-3.1527,-3.1528,-3.1529,0,0,0,0,0,0,-3.1653,-3.165,-3.1619,-3.1629,-3.1625,-3.1598,-3.1593,-3.1588,-3.1583,-3.1556,-3.1551,-3.1566,-3.1532,-3.1529,-3.1528,-3.1538,-3.1511,-3.151,-3.1526,-3.1527,-3.1528,-3.1566,0,0,0,0,0,0,-3.1654,-3.165,-3.1654,-3.163,-3.1624,-3.162,-3.1594,-3.1588,-3.1582,-3.1578,-3.1555,-3.155,-3.1531,-3.1529,-3.1527,-3.1537,-3.151,-3.1525,-3.1526,-3.1528,-3.1564,-3.1568,-3.1572,0,0,0,0,0,-3.1655,-3.1666,-3.1655,-3.1652,-3.1629,-3.1621,-3.1618,-3.1595,-3.1583,-3.1587,-3.157,-3.1551,-3.1538,-3.1529,-3.1527,-3.1537,-3.1524,-3.1526,-3.1528,-3.1562,-3.1567,-3.1572,0,0,0,0,0,0,-3.1692,-3.1662,-3.1649,-3.1652,-3.164,-3.1614,-3.1618,-3.1602,-3.1592,-3.1589,-3.1562,-3.1557,-3.156,-3.1548,-3.1539,-3.1547,-3.1528,-3.153,-3.1555,-3.156,-3.1564,-3.1567,-3.1509,0,0,0,0,0,-3.17,-3.1696,-3.167,-3.1676,-3.167,-3.1646,-3.1641,-3.1625,-3.161,-3.1605,-3.1588,-3.1574,-3.1567,-3.1563,-3.1555,-3.1562,-3.1557,-3.1567,-3.1572,-3.1576,-3.1577,-3.1581,-3.1586,-3.1535,-3.1535,-3.1535,0,0,-3.1717,-3.1701,-3.17,-3.1683,-3.1671,-3.1667,-3.1641,-3.1638,-3.1635,-3.1604,-3.1603,-3.159,-3.1573,-3.1577,-3.1577,-3.1567,-3.159,-3.1578,-3.1581,-3.1581,-3.1584,-3.1588,-3.1593,-3.1536,-3.1536,-3.1536,0,0,-3.1747,-3.1734,-3.1737,-3.1726,-3.1709,-3.1693,-3.1694,-3.1671,-3.1662,-3.166,-3.1637,-3.1633,-3.1621,-3.1611,-3.1604,-3.1631,-3.1614,-3.1629,-3.1652,-3.1656,-3.166,-3.1664,-3.1674,-3.1678,-3.1631,-3.1631,-3.1631,0,-3.1771,-3.1765,-3.1741,-3.174,-3.1734,-3.1706,-3.1709,-3.17,-3.168,-3.1677,-3.1666,-3.1651,-3.1637,-3.1638,-3.1645,-3.164,-3.1641,-3.1632,-3.1662,-3.1665,-3.1668,-3.1677,-3.1681,-3.1633,-3.1633,-3.1633,-3.1633,0,-3.1795,-3.1791,-3.1796,-3.1779,-3.1773,-3.1774,-3.1751,-3.1748,-3.1733,-3.1718,-3.1717,-3.1701,-3.1689,-3.1688,-3.1673,-3.1688,-3.1682,-3.1667,-3.1647,-3.1675,-3.1683,-3.1687,-3.1636,-3.1635,-3.1635,-3.1634,0,0,-3.1846,-3.1817,-3.1819,-3.1811,-3.179,-3.1787,-3.1787,-3.1777,-3.1775,-3.1763,-3.1763,-3.1754,-3.174,-3.1732,-3.1716,-3.172,-3.1744,-3.1704,-3.1703,-3.1712,-3.1759,-3.1771,-3.1776,-3.1732,-3.1733,-3.1733,-3.1761,0,-3.1872,-3.1871,-3.1851,-3.1856,-3.1852,-3.1827,-3.1827,-3.1815,-3.1801,-3.1797,-3.1782,-3.1776,-3.1758,-3.1753,-3.1756,-3.174,-3.1753,-3.1738,-3.1732,-3.1732,-3.1737,-3.178,-3.1792,-3.1819,-3.1764,-3.1764,-3.1765,0,-3.1902,-3.1893,-3.1898,-3.1878,-3.1876,-3.1877,-3.1866,-3.1861,-3.1847,-3.1837,-3.183,-3.1812,-3.1811,-3.1793,-3.1792,-3.1782,-3.1779,-3.1771,-3.1772,-3.177,-3.175,-3.178,-3.1827,-3.1831,-3.177,-3.1769,-3.1769,0,-3.194,-3.1928,-3.193,-3.1924,-3.1901,-3.1902,-3.1893,-3.1878,-3.1873,-3.1863,-3.186,-3.1851,-3.1846,-3.1839,-3.1819,-3.1808,-3.1821,-3.1801,-3.1813,-3.1814,-3.1817,-3.1817,-3.1864,-3.1815,-3.1815,-3.1815,-3.1815,0,-3.1971,-3.1975,-3.1946,-3.1947,-3.1951,-3.1928,-3.1933,-3.1921,-3.1908,-3.1907,-3.1884,-3.1883,-3.1857,-3.1853,-3.1838,-3.184,-3.1838,-3.183,-3.1826,-3.1832,-3.1833,-3.183,-3.1827,-3.1816,-3.1815,-3.1815,-3.1815,0,-3.2013,-3.1994,-3.1994,-3.1973,-3.1968,-3.1972,-3.1953,-3.1954,-3.1939,-3.1938,-3.1936,-3.1914,-3.1909,-3.1888,-3.1878,-3.1868,-3.1875,-3.1867,-3.188,-3.1877,-3.1891,-3.189,-3.1938,-3.1943,-3.189,-3.189,-3.1891,0,-3.2035,-3.2037,-3.2017,-3.2014,-3.2006,-3.2002,-3.1997,-3.1975,-3.1971,-3.1956,-3.1958,-3.1951,-3.1945,-3.1937,-3.192,-3.1913,-3.1904,-3.1922,-3.1903,-3.191,-3.1905,-3.1905,-3.1906,-3.1925,-3.1926,-3.1927,-3.1927,0,-3.2075,-3.2066,-3.206,-3.2051,-3.2046,-3.2038,-3.2029,-3.2028,-3.2003,-3.2,-3.1995,-3.199,-3.198,-3.1973,-3.1963,-3.1953,-3.1937,-3.1933,-3.1936,-3.1942,-3.195,-3.1947,-3.1891,-3.1932,-3.1932,-3.1931,-3.1931,-3.1931,-3.2107,-3.2109,-3.2095,-3.209,-3.2081,-3.2073,-3.2072,-3.2058,-3.2054,-3.2044,-3.2031,-3.2028,-3.2014,-3.1999,-3.1991,-3.1988,-3.1978,-3.1982,-3.1983,-3.1984,-3.1988,-3.1951,-3.1986,-3.1986,-3.1986,-3.1986,-3.1985,0,-3.2147,-3.2137,-3.2132,-3.212,-3.2117,-3.2101,-3.2091,-3.2088,-3.2086,-3.2075,-3.2069,-3.2063,-3.2057,-3.2041,-3.2033,-3.2034,-3.2026,-3.2033,-3.2033,-3.2031,-3.1996,-3.1995,-3.204,-3.204,-3.204,-3.204,-3.204,-3.204,-3.2167,-3.2169,-3.2159,-3.2156,-3.2146,-3.2143,-3.2138,-3.2131,-3.2123,-3.2117,-3.2113,-3.2102,-3.2089,-3.208,-3.2075,-3.207,-3.2068,-3.2078,-3.2071,-3.2038,-3.2033,-3.2028,-3.2027,-3.2078,-3.2078,-3.2105,-3.2106,-3.2106]},{"header":{"parameterUnit":"m.s-1","parameterCategory":1,"la1":30.2991,"la2":30.254,"lo1":-89.0895,"lo2":-89.0444,"dy":0.0017,"dx":0.0017,"nx":28,"ny":28,"refTime":"2024-10-06T03:00:00:Z","depth":0,"parameterNumber":3,"parameterNumberName":"V-component_of_WINDS"},"data":[0,0,0,0,0,0,0,0,0,0,0,0,0,0,0,0,0,0,0,0,0,0,0,0,0,0,0,0,0,0,0,0,0,0,0,0,0,0,0,0,0,0,0,0,0,0,0,0,0,0,0,0,0,0,0,0,0,0,-3.709,-3.7091,0,-3.7109,-3.7109,-3.711,-3.711,-3.711,-3.7109,-3.7109,-3.7126,-3.7127,-3.7128,0,0,0,0,0,0,0,0,0,0,0,0,0,-3.7054,-3.7055,-3.709,-3.7091,-3.7091,-3.7109,-3.7109,-3.711,-3.711,-3.711,-3.7109,-3.7109,-3.7126,-3.7127,-3.7128,0,0,0,0,0,0,0,0,0,0,0,0,0,-3.7071,-3.7055,-3.709,-3.7093,-3.7094,-3.7109,-3.7109,-3.711,-3.711,-3.711,-3.7109,-3.7109,-3.7126,-3.7127,-3.7128,-3.7141,0,0,-3.7131,-3.7131,0,0,0,0,0,0,0,0,-3.707,-3.7072,-3.7093,-3.7093,-3.7094,-3.7107,-3.7103,-3.712,-3.711,-3.7104,-3.7109,-3.7109,-3.712,-3.7122,-3.7126,-3.7142,-3.7142,-3.7131,-3.7132,-3.7132,-3.7132,0,0,0,0,0,0,0,-3.7069,-3.7072,-3.7098,-3.7093,-3.7094,-3.7094,-3.7096,-3.7106,-3.7114,-3.7104,-3.7104,-3.7107,-3.712,-3.7125,-3.7126,-3.7143,-3.7131,-3.7132,-3.7133,-3.7133,-3.7173,-3.7173,0,0,0,0,0,0,-3.7067,-3.7071,-3.7097,-3.7098,-3.7081,-3.7094,-3.7097,-3.7103,-3.7113,-3.7115,-3.7107,-3.7107,-3.7123,-3.7125,-3.7127,-3.7144,-3.7132,-3.7133,-3.7134,-3.7172,-3.7173,-3.7173,0,0,0,0,0,0,-3.7067,-3.707,-3.7096,-3.7085,-3.7088,-3.7095,-3.7102,-3.7103,-3.7108,-3.7116,-3.7117,-3.711,-3.7123,-3.7125,-3.7138,-3.7145,-3.7134,-3.7134,-3.7172,-3.7173,-3.7173,-3.7179,0,0,0,0,0,0,-3.7066,-3.707,-3.7074,-3.7085,-3.7089,-3.7108,-3.7103,-3.7104,-3.711,-3.711,-3.7119,-3.712,-3.7123,-3.7137,-3.7139,-3.7146,-3.7135,-3.7171,-3.7172,-3.7173,-3.7178,-3.718,-3.7181,0,0,0,0,0,-3.7064,-3.7074,-3.7075,-3.7078,-3.7095,-3.7108,-3.711,-3.7114,-3.711,-3.7116,-3.7121,-3.712,-3.7144,-3.7138,-3.7141,-3.7148,-3.7171,-3.7172,-3.7173,-3.7177,-3.7179,-3.7181,0,0,0,0,0,0,-3.7063,-3.7075,-3.7076,-3.709,-3.7098,-3.7108,-3.7114,-3.7115,-3.7124,-3.7123,-3.7127,-3.7129,-3.7142,-3.7146,-3.7139,-3.7163,-3.7157,-3.7159,-3.7159,-3.7161,-3.7163,-3.7162,-3.7136,0,0,0,0,0,-3.7065,-3.7075,-3.7085,-3.7096,-3.71,-3.7107,-3.7112,-3.7115,-3.7123,-3.7126,-3.7132,-3.714,-3.7149,-3.7155,-3.7164,-3.7179,-3.7182,-3.7185,-3.7187,-3.7188,-3.7189,-3.7199,-3.7202,-3.7177,-3.7177,-3.7177,0,0,-3.7067,-3.7075,-3.7081,-3.7096,-3.7102,-3.7113,-3.7109,-3.712,-3.7128,-3.7127,-3.7141,-3.7145,-3.7154,-3.7169,-3.7175,-3.7172,-3.7197,-3.7189,-3.719,-3.7191,-3.7201,-3.7203,-3.7205,-3.7178,-3.7177,-3.7177,0,0,-3.7078,-3.7085,-3.7096,-3.7103,-3.7114,-3.7119,-3.7121,-3.7132,-3.7136,-3.7149,-3.715,-3.7159,-3.7175,-3.7182,-3.7188,-3.7204,-3.7204,-3.7206,-3.7214,-3.7224,-3.7226,-3.7228,-3.7235,-3.7238,-3.7208,-3.7208,-3.7208,0,-3.708,-3.7096,-3.7101,-3.7112,-3.7119,-3.7121,-3.7133,-3.714,-3.7152,-3.7157,-3.7154,-3.7176,-3.7182,-3.7199,-3.7203,-3.7207,-3.7211,-3.7206,-3.7225,-3.7227,-3.7229,-3.7236,-3.7239,-3.7208,-3.7208,-3.7208,-3.7208,0,-3.7099,-3.711,-3.7117,-3.7132,-3.714,-3.7151,-3.7158,-3.7165,-3.7167,-3.7173,-3.7187,-3.7195,-3.7207,-3.7211,-3.7212,-3.7229,-3.7227,-3.7225,-3.7219,-3.7232,-3.7239,-3.7241,-3.7209,-3.7209,-3.7209,-3.7209,0,0,-3.7107,-3.7127,-3.7129,-3.7137,-3.715,-3.7159,-3.7171,-3.7184,-3.7191,-3.72,-3.7211,-3.7225,-3.7224,-3.723,-3.7233,-3.7241,-3.7256,-3.7238,-3.7238,-3.7243,-3.7277,-3.7279,-3.7282,-3.7256,-3.7256,-3.7257,-3.7277,0,-3.712,-3.7143,-3.7149,-3.7168,-3.718,-3.7183,-3.7194,-3.7203,-3.7209,-3.7219,-3.7225,-3.7237,-3.7233,-3.7237,-3.7246,-3.7252,-3.7263,-3.7251,-3.7267,-3.7267,-3.7266,-3.7286,-3.7288,-3.7306,-3.7279,-3.7279,-3.728,0,-3.7138,-3.715,-3.7171,-3.7185,-3.719,-3.72,-3.7213,-3.7223,-3.7235,-3.7238,-3.7247,-3.7249,-3.7263,-3.7257,-3.7276,-3.7267,-3.7274,-3.7279,-3.728,-3.7282,-3.7275,-3.729,-3.7311,-3.7315,-3.7284,-3.7283,-3.7283,0,-3.7144,-3.7165,-3.7181,-3.7187,-3.7204,-3.7211,-3.7218,-3.723,-3.7238,-3.7249,-3.7255,-3.7267,-3.7274,-3.7284,-3.729,-3.7285,-3.7309,-3.7303,-3.7313,-3.7313,-3.7319,-3.7318,-3.7343,-3.7321,-3.7321,-3.7321,-3.7321,0,-3.7159,-3.7172,-3.7185,-3.7195,-3.721,-3.7217,-3.7232,-3.7239,-3.7249,-3.7261,-3.7264,-3.7274,-3.7281,-3.7293,-3.7298,-3.7314,-3.7317,-3.7321,-3.7322,-3.7321,-3.7321,-3.7326,-3.7325,-3.7322,-3.7322,-3.7322,-3.7322,0,-3.7168,-3.7177,-3.7195,-3.7211,-3.7215,-3.7225,-3.7239,-3.7249,-3.7255,-3.727,-3.7274,-3.7284,-3.7299,-3.7306,-3.7323,-3.7326,-3.7345,-3.7345,-3.7342,-3.7343,-3.7353,-3.7353,-3.7383,-3.7388,-3.7362,-3.7362,-3.7362,0,-3.7177,-3.7187,-3.7205,-3.7214,-3.7222,-3.7235,-3.7244,-3.7252,-3.7262,-3.7277,-3.7285,-3.73,-3.7313,-3.7336,-3.7345,-3.7358,-3.7359,-3.7369,-3.7361,-3.7361,-3.7361,-3.7361,-3.7363,-3.7371,-3.7371,-3.7371,-3.7371,0,-3.7192,-3.7197,-3.721,-3.7226,-3.7238,-3.725,-3.7262,-3.7269,-3.7279,-3.729,-3.7306,-3.7316,-3.7335,-3.735,-3.7365,-3.7372,-3.7374,-3.7374,-3.7377,-3.7377,-3.7376,-3.7378,-3.7347,-3.7373,-3.7373,-3.7373,-3.7373,-3.7373,-3.7202,-3.7213,-3.7228,-3.7243,-3.7254,-3.7266,-3.7277,-3.7287,-3.73,-3.7318,-3.7321,-3.7339,-3.7352,-3.7373,-3.7381,-3.7394,-3.7392,-3.7396,-3.7398,-3.7399,-3.7401,-3.7373,-3.7397,-3.7397,-3.7397,-3.7397,-3.7396,0,-3.7218,-3.7229,-3.7244,-3.7262,-3.7275,-3.7277,-3.7292,-3.7302,-3.7318,-3.733,-3.7344,-3.7363,-3.7378,-3.739,-3.7406,-3.7415,-3.7416,-3.7419,-3.7418,-3.7421,-3.7401,-3.7397,-3.7418,-3.7418,-3.7418,-3.7418,-3.7418,-3.7417,-3.7229,-3.7247,-3.7255,-3.7279,-3.729,-3.7308,-3.7316,-3.7328,-3.7339,-3.7361,-3.7375,-3.7382,-3.7395,-3.7412,-3.7427,-3.743,-3.7436,-3.7439,-3.7442,-3.7424,-3.7422,-3.742,-3.7416,-3.744,-3.744,-3.7461,-3.7462,-3.7462]}]]